User: anonymous   Login
Location: Simi Valley
(34.2690°N, 118.7810°W)
Time: 17:16:32
(UTC-07:00)
Language:

SAR-Lupe-1 - Orbit

View from above orbital plane
View from above orbital plane
View from above satellite
View from above satellite

Ground track
Ground track

The orbit data is extracted from the following two-line orbital elements,

1 29658U 06060A   17161.11191431 0.00000000  00000-0  00000-0 0    02
2 29658  98.1498 211.8846 0002000 215.8369 144.1629 15.27273369    09
Epoch (UTC): 10 June 2017 02:41:09
Eccentricity: 0.0002000
inclination: 98.1498°
perigee height: 482 km
apogee height: 485 km
right ascension of ascending node: 211.8846°
argument of perigee: 215.8369°
revolutions per day: 15.27273369
mean anomaly at epoch: 144.1629°
orbit number at epoch: 0

The dashed part of the orbit path shows where the satellite is in the earth's shadow,  

DLR